Weather History for Newport, RI

Change the Weather History Date:

Friday, December 13, 2013

  Actual Average Record
Temperature  
Mean Temperature 24 °F -  
Max Temperature 30 °F 44 °F 60 °F (1983)
Min Temperature 19 °F 28 °F 9 °F (1960)
Degree Days  
Heating Degree Days 40    
Moisture  
Dew Point 10 °F    
Average Humidity 53    
Maximum Humidity 66    
Minimum Humidity 43    
Precipitation  
Precipitation 0.00 in - - ()
Sea Level Pressure  
Sea Level Pressure 30.14 in    
Wind  
Wind Speed 9 mph (West)    
Max Wind Speed 13 mph    
Max Gust Speed 24 mph    
Visibility 10 miles    
Events      
Averages and records for this station are not official NWS values.
T = Trace of Precipitation, MM = Missing Value Source: NWS Daily Summary

Daily Weather History Graph

Daily Weather History Graph

Search for Another Location

Airport:

Trip Planner

Search our weather history database for the weather conditions in past years. The results will help you decide how hot, cold, wet, or windy it might be!

Date:

Astronomy

Dec. 13, 2013 Rise Set
Actual Time 7:03 AM EST 4:15 PM EST
Civil Twilight 6:31 AM EST 4:46 PM EST
Nautical Twilight 5:57 AM EST 5:21 PM EST
Astronomical Twilight 5:23 AM EST 5:55 PM EST
Moon 1:58 PM EST (12/13) 3:20 AM EST (12/13)
Length of Visible Light 10h 15m
Length of Day
9h 12m
Waxing Gibbous, 88% of the Moon is Illuminated
Dec 13
Waxing Gibbous
Dec 17
Full
Dec 25
Last Quarter
Jan 1
New
Jan 7
First Quarter

Hourly Weather History & Observations

Time (EST) Temp. Windchill Dew Point Humidity Pressure Visibility Wind Dir Wind Speed Gust Speed Precip Events Conditions
12:53 AM 21.0 °F 9.9 °F 6.1 °F 53% 30.07 in 10.0 mi West 10.4 mph 17.3 mph N/A   Partly Cloudy
1:53 AM 19.9 °F 8.6 °F 5.0 °F 52% 30.06 in 10.0 mi West 10.4 mph 21.9 mph N/A   Clear
2:53 AM 19.9 °F 9.3 °F 5.0 °F 52% 30.06 in 10.0 mi West 9.2 mph 18.4 mph N/A   Clear
3:53 AM 19.0 °F 7.5 °F 6.1 °F 57% 30.05 in 10.0 mi WSW 10.4 mph 19.6 mph N/A   Clear
4:53 AM 19.9 °F 7.3 °F 7.0 °F 57% 30.05 in 10.0 mi West 12.7 mph 21.9 mph N/A   Partly Cloudy
5:53 AM 21.0 °F 9.9 °F 8.1 °F 57% 30.07 in 10.0 mi WSW 10.4 mph 24.2 mph N/A   Mostly Cloudy
6:53 AM 21.9 °F 12.5 °F 8.1 °F 55% 30.07 in 10.0 mi West 8.1 mph 19.6 mph N/A   Overcast
7:53 AM 23.0 °F 15.8 °F 8.1 °F 53% 30.08 in 10.0 mi Variable 5.8 mph - N/A   Overcast
8:53 AM 24.1 °F 14.4 °F 8.1 °F 51% 30.10 in 10.0 mi WSW 9.2 mph 18.4 mph N/A   Overcast
9:53 AM 25.0 °F 14.8 °F 9.0 °F 51% 30.10 in 10.0 mi West 10.4 mph 18.4 mph N/A   Scattered Clouds
10:53 AM 27.0 °F 18.7 °F 10.0 °F 49% 30.09 in 10.0 mi West 8.1 mph - N/A   Overcast
11:53 AM 30.0 °F 21.7 °F 10.0 °F 43% 30.06 in 10.0 mi West 9.2 mph 17.3 mph N/A   Partly Cloudy
12:53 PM 30.9 °F 22.8 °F 12.0 °F 46% 30.06 in 10.0 mi West 9.2 mph - N/A   Clear
1:53 PM 30.9 °F 22.2 °F 10.9 °F 43% 30.06 in 10.0 mi West 10.4 mph 19.6 mph N/A   Clear
2:53 PM 30.9 °F 21.2 °F 10.9 °F 43% 30.09 in 10.0 mi WNW 12.7 mph 24.2 mph N/A   Clear
3:53 PM 30.0 °F 20.5 °F 10.9 °F 45% 30.13 in 10.0 mi West 11.5 mph 17.3 mph N/A   Clear
4:53 PM 30.0 °F 21.1 °F 12.0 °F 47% 30.15 in 10.0 mi WNW 10.4 mph - N/A   Clear
5:53 PM 28.9 °F 22.8 °F 12.9 °F 51% 30.18 in 10.0 mi WNW 5.8 mph - N/A   Clear
6:53 PM 28.0 °F 22.8 °F 12.9 °F 53% 30.22 in 10.0 mi WNW 4.6 mph - N/A   Clear
7:53 PM 28.0 °F 20.8 °F 14.0 °F 56% 30.26 in 10.0 mi NW 6.9 mph - N/A   Clear
8:53 PM 27.0 °F 20.5 °F 14.0 °F 58% 30.28 in 10.0 mi NW 5.8 mph - N/A   Clear
9:53 PM 26.1 °F 18.4 °F 16.0 °F 66% 30.30 in 10.0 mi NW 6.9 mph - N/A   Mostly Cloudy
10:53 PM 26.1 °F 16.8 °F 15.1 °F 63% 30.32 in 10.0 mi NW 9.2 mph - N/A   Overcast
11:53 PM 26.1 °F 18.4 °F 14.0 °F 60% 30.34 in 10.0 mi North 6.9 mph - N/A   Overcast